Time,TemperatureF,DewpointF,PressureIn,WindDirection,WindDirectionDegrees,WindSpeedMPH,WindSpeedGustMPH,Humidity,HourlyPrecipIn,Conditions,Clouds,dailyrainin,SoftwareType,DateUTC
2013-03-09 05:44:00,30.8,24.7,30.24,NNE,24,8.0,8.0,78,0.00,,,0.00,Wunderground v.1.15,2013-03-09 10:44:00,
2013-03-09 05:45:00,30.8,24.7,30.23,NNE,14,8.0,11.0,78,0.00,,,0.00,Wunderground v.1.15,2013-03-09 10:45:00,
2013-03-09 05:47:00,30.8,24.7,30.24,North,5,8.0,11.0,78,0.00,,,0.00,Wunderground v.1.15,2013-03-09 10:47:00,
2013-03-09 05:52:00,30.8,24.4,30.24,NNW,339,9.0,11.0,77,0.00,,,0.00,Wunderground v.1.15,2013-03-09 10:52:00,
2013-03-09 05:55:00,30.8,24.4,30.24,North,5,9.0,11.0,77,0.00,,,0.00,Wunderground v.1.15,2013-03-09 10:55:00,
2013-03-09 06:01:00,30.9,24.2,30.24,North,360,9.0,19.0,76,0.00,,,0.00,Wunderground v.1.15,2013-03-09 11:01:00,
2013-03-09 06:06:00,30.7,24.3,30.24,NNE,28,9.0,19.0,77,0.00,,,0.00,Wunderground v.1.15,2013-03-09 11:06:00,
2013-03-09 06:11:00,30.7,24.3,30.24,North,9,9.0,19.0,77,0.00,,,0.00,Wunderground v.1.15,2013-03-09 11:11:00,
2013-03-09 06:16:00,30.7,24.0,30.24,North,5,9.0,19.0,76,0.00,,,0.00,Wunderground v.1.15,2013-03-09 11:16:00,
2013-03-09 06:22:00,30.7,24.0,30.25,North,5,9.0,19.0,76,0.00,,,0.00,Wunderground v.1.15,2013-03-09 11:22:00,
2013-03-09 06:27:00,30.6,23.9,30.25,North,360,9.0,19.0,76,0.00,,,0.00,Wunderground v.1.15,2013-03-09 11:27:00,
2013-03-09 06:32:00,30.6,23.9,30.25,North,355,9.0,19.0,76,0.00,,,0.00,Wunderground v.1.15,2013-03-09 11:32:00,
2013-03-09 06:37:00,30.7,24.0,30.25,North,5,8.0,19.0,76,0.00,,,0.00,Wunderground v.1.15,2013-03-09 11:37:00,
2013-03-09 06:42:00,31.0,24.0,30.26,North,360,8.0,19.0,75,0.00,,,0.00,Wunderground v.1.15,2013-03-09 11:42:00,
2013-03-09 06:48:00,31.1,24.1,30.26,NNE,17,9.0,19.0,75,0.00,,,0.00,Wunderground v.1.15,2013-03-09 11:48:00,
2013-03-09 06:53:00,31.1,24.1,30.26,North,360,9.0,19.0,75,0.00,,,0.00,Wunderground v.1.15,2013-03-09 11:53:00,
2013-03-09 06:59:00,31.2,24.2,30.26,North,360,8.0,19.0,75,0.00,,,0.00,Wunderground v.1.15,2013-03-09 11:59:00,
2013-03-09 07:04:00,31.4,24.4,30.26,NNE,13,8.0,19.0,75,0.00,,,0.00,Wunderground v.1.15,2013-03-09 12:04:00,
2013-03-09 07:09:00,31.5,24.5,30.26,NNE,19,8.0,19.0,75,0.00,,,0.00,Wunderground v.1.15,2013-03-09 12:09:00,
2013-03-09 07:14:00,31.6,24.6,30.27,North,355,10.0,19.0,75,0.00,,,0.00,Wunderground v.1.15,2013-03-09 12:14:00,
2013-03-09 07:20:00,31.7,24.7,30.26,NNE,29,10.0,19.0,75,0.00,,,0.00,Wunderground v.1.15,2013-03-09 12:20:00,
2013-03-09 07:25:00,31.8,24.8,30.27,NNE,14,11.0,19.0,75,0.00,,,0.00,Wunderground v.1.15,2013-03-09 12:25:00,
2013-03-09 07:30:00,32.0,25.0,30.27,ENE,60,10.0,10.0,75,0.00,,,0.00,Wunderground v.1.15,2013-03-09 12:30:00,
2013-03-09 07:36:00,32.3,24.9,30.27,NE,34,10.0,19.0,74,0.00,,,0.00,Wunderground v.1.15,2013-03-09 12:36:00,
2013-03-09 07:41:00,32.4,25.0,30.26,NNE,14,9.0,12.0,74,0.00,,,0.00,Wunderground v.1.15,2013-03-09 12:41:00,
2013-03-09 07:46:00,32.5,25.1,30.27,NNE,20,9.0,19.0,74,0.00,,,0.00,Wunderground v.1.15,2013-03-09 12:46:00,
2013-03-09 07:52:00,32.7,25.0,30.27,North,5,10.0,13.0,73,0.00,,,0.00,Wunderground v.1.15,2013-03-09 12:52:00,
2013-03-09 07:57:00,32.9,25.2,30.27,NNE,19,10.0,19.0,73,0.00,,,0.00,Wunderground v.1.15,2013-03-09 12:57:00,
2013-03-09 08:02:00,33.0,25.6,30.27,NNE,27,10.0,15.0,74,0.00,,,0.00,Wunderground v.1.15,2013-03-09 13:02:00,
2013-03-09 08:08:00,33.2,25.5,30.27,North,355,11.0,19.0,73,0.00,,,0.00,Wunderground v.1.15,2013-03-09 13:08:00,
2013-03-09 08:13:00,33.3,25.6,30.28,North,5,11.0,19.0,73,0.00,,,0.00,Wunderground v.1.15,2013-03-09 13:13:00,
2013-03-09 08:19:00,33.6,25.9,30.28,North,355,10.0,19.0,73,0.00,,,0.00,Wunderground v.1.15,2013-03-09 13:19:00,
2013-03-09 08:24:00,33.6,25.9,30.28,North,355,10.0,19.0,73,0.00,,,0.00,Wunderground v.1.15,2013-03-09 13:24:00,
2013-03-09 08:29:00,33.7,25.6,30.28,NNE,13,11.0,19.0,72,0.00,,,0.00,Wunderground v.1.15,2013-03-09 13:29:00,
2013-03-09 08:34:00,33.9,25.8,30.28,North,360,10.0,19.0,72,0.00,,,0.00,Wunderground v.1.15,2013-03-09 13:34:00,
2013-03-09 08:40:00,34.0,25.6,30.28,North,350,10.0,19.0,71,0.00,,,0.00,Wunderground v.1.15,2013-03-09 13:40:00,
2013-03-09 08:45:00,34.2,25.8,30.28,North,360,10.0,19.0,71,0.00,,,0.00,Wunderground v.1.15,2013-03-09 13:45:00,
2013-03-09 08:51:00,34.3,25.9,30.28,NNE,19,10.0,19.0,71,0.00,,,0.00,Wunderground v.1.15,2013-03-09 13:51:00,
2013-03-09 08:57:00,34.6,25.8,30.28,North,355,10.0,19.0,70,0.00,,,0.00,Wunderground v.1.15,2013-03-09 13:57:00,
2013-03-09 09:02:00,34.7,25.9,30.28,North,5,10.0,19.0,70,0.00,,,0.00,Wunderground v.1.15,2013-03-09 14:02:00,
2013-03-09 09:07:00,34.8,26.0,30.28,North,360,10.0,19.0,70,0.00,,,0.00,Wunderground v.1.15,2013-03-09 14:07:00,
2013-03-09 09:12:00,35.0,26.2,30.28,North,350,10.0,19.0,70,0.00,,,0.00,Wunderground v.1.15,2013-03-09 14:12:00,
2013-03-09 09:17:00,35.2,25.7,30.28,NNE,26,9.0,19.0,68,0.00,,,0.00,Wunderground v.1.15,2013-03-09 14:17:00,
2013-03-09 09:23:00,35.4,25.5,30.28,North,355,10.0,19.0,67,0.00,,,0.00,Wunderground v.1.15,2013-03-09 14:23:00,
2013-03-09 09:28:00,35.5,26.0,30.28,North,355,11.0,19.0,68,0.00,,,0.00,Wunderground v.1.15,2013-03-09 14:28:00,
2013-03-09 09:34:00,35.5,25.6,30.28,North,11,11.0,19.0,67,0.00,,,0.00,Wunderground v.1.15,2013-03-09 14:34:00,
2013-03-09 09:40:00,35.5,25.6,30.28,North,5,11.0,19.0,67,0.00,,,0.00,Wunderground v.1.15,2013-03-09 14:40:00,
2013-03-09 09:45:00,35.6,25.7,30.28,North,351,11.0,19.0,67,0.00,,,0.00,Wunderground v.1.15,2013-03-09 14:45:00,
2013-03-09 09:50:00,35.7,25.8,30.28,NNE,18,12.0,19.0,67,0.00,,,0.00,Wunderground v.1.15,2013-03-09 14:50:00,
2013-03-09 09:56:00,36.0,25.7,30.28,NNE,25,12.0,19.0,66,0.00,,,0.00,Wunderground v.1.15,2013-03-09 14:56:00,
2013-03-09 10:01:00,36.2,25.9,30.28,NNE,15,11.0,19.0,66,0.00,,,0.00,Wunderground v.1.15,2013-03-09 15:01:00,
2013-03-09 10:06:00,36.4,25.7,30.28,North,5,11.0,19.0,65,0.00,,,0.00,Wunderground v.1.15,2013-03-09 15:06:00,
2013-03-09 10:11:00,36.5,25.5,30.28,NNW,345,10.0,19.0,64,0.00,,,0.00,Wunderground v.1.15,2013-03-09 15:11:00,
2013-03-09 10:17:00,36.7,26.0,30.27,North,360,10.0,19.0,65,0.00,,,0.00,Wunderground v.1.15,2013-03-09 15:17:00,
2013-03-09 10:22:00,36.9,26.2,30.27,NNW,334,10.0,19.0,65,0.00,,,0.00,Wunderground v.1.15,2013-03-09 15:22:00,
2013-03-09 10:27:00,37.2,26.1,30.27,North,5,10.0,19.0,64,0.00,,,0.00,Wunderground v.1.15,2013-03-09 15:27:00,
2013-03-09 10:32:00,37.4,25.9,30.28,NNE,15,10.0,19.0,63,0.00,,,0.00,Wunderground v.1.15,2013-03-09 15:32:00,
2013-03-09 10:38:00,37.5,26.0,30.28,NNE,15,10.0,19.0,63,0.00,,,0.00,Wunderground v.1.15,2013-03-09 15:38:00,
2013-03-09 10:43:00,37.6,26.1,30.27,North,351,10.0,19.0,63,0.00,,,0.00,Wunderground v.1.15,2013-03-09 15:43:00,
2013-03-09 10:49:00,37.8,25.9,30.27,NNE,21,10.0,19.0,62,0.00,,,0.00,Wunderground v.1.15,2013-03-09 15:49:00,
2013-03-09 10:54:00,37.9,26.0,30.28,North,360,10.0,19.0,62,0.00,,,0.00,Wunderground v.1.15,2013-03-09 15:54:00,
2013-03-09 11:00:00,38.1,26.2,30.27,North,360,9.0,9.0,62,0.00,,,0.00,Wunderground v.1.15,2013-03-09 16:00:00,
2013-03-09 11:05:00,38.1,25.8,30.28,NNE,16,9.0,19.0,61,0.00,,,0.00,Wunderground v.1.15,2013-03-09 16:05:00,
2013-03-09 11:10:00,38.3,25.6,30.28,North,9,11.0,19.0,60,0.00,,,0.00,Wunderground v.1.15,2013-03-09 16:10:00,
2013-03-09 11:16:00,38.6,25.9,30.28,NNE,28,10.0,19.0,60,0.00,,,0.00,Wunderground v.1.15,2013-03-09 16:16:00,
2013-03-09 11:21:00,39.1,26.0,30.28,North,355,9.0,19.0,59,0.00,,,0.00,Wunderground v.1.15,2013-03-09 16:21:00,
2013-03-09 11:26:00,39.3,26.2,30.28,NE,49,9.0,19.0,59,0.00,,,0.00,Wunderground v.1.15,2013-03-09 16:26:00,
2013-03-09 11:32:00,39.7,26.1,30.28,NNE,18,8.0,19.0,58,0.00,,,0.00,Wunderground v.1.15,2013-03-09 16:32:00,
2013-03-09 11:37:00,39.7,25.7,30.28,North,5,8.0,19.0,57,0.00,,,0.00,Wunderground v.1.15,2013-03-09 16:37:00,
2013-03-09 11:42:00,39.8,25.8,30.28,North,350,8.0,19.0,57,0.00,,,0.00,Wunderground v.1.15,2013-03-09 16:42:00,
2013-03-09 11:47:00,40.2,25.3,30.28,NNW,347,8.0,19.0,55,0.00,,,0.00,Wunderground v.1.15,2013-03-09 16:47:00,
2013-03-09 11:52:00,40.3,25.4,30.28,North,351,8.0,19.0,55,0.00,,,0.00,Wunderground v.1.15,2013-03-09 16:52:00,
2013-03-09 11:57:00,40.3,25.8,30.28,North,10,9.0,19.0,56,0.00,,,0.00,Wunderground v.1.15,2013-03-09 16:57:00,
2013-03-09 12:02:00,40.5,25.6,30.28,North,351,9.0,19.0,55,0.00,,,0.00,Wunderground v.1.15,2013-03-09 17:02:00,
2013-03-09 12:08:00,40.9,26.4,30.28,North,351,8.0,19.0,56,0.00,,,0.00,Wunderground v.1.15,2013-03-09 17:08:00,
2013-03-09 12:13:00,41.3,26.3,30.27,NNW,348,7.0,19.0,55,0.00,,,0.00,Wunderground v.1.15,2013-03-09 17:13:00,
2013-03-09 12:18:00,41.6,26.6,30.27,NE,38,6.0,19.0,55,0.00,,,0.00,Wunderground v.1.15,2013-03-09 17:18:00,
2013-03-09 12:23:00,41.9,26.0,30.27,North,5,6.0,19.0,53,0.00,,,0.00,Wunderground v.1.15,2013-03-09 17:23:00,
2013-03-09 12:29:00,41.9,26.0,30.27,NNW,348,7.0,19.0,53,0.00,,,0.00,Wunderground v.1.15,2013-03-09 17:29:00,
2013-03-09 12:35:00,42.2,26.3,30.27,NNE,17,6.0,19.0,53,0.00,,,0.00,Wunderground v.1.15,2013-03-09 17:35:00,
2013-03-09 12:40:00,41.7,24.9,30.27,North,5,7.0,19.0,51,0.00,,,0.00,Wunderground v.1.15,2013-03-09 17:40:00,
2013-03-09 12:45:00,41.7,25.4,30.27,North,355,9.0,19.0,52,0.00,,,0.00,Wunderground v.1.15,2013-03-09 17:45:00,
2013-03-09 12:51:00,42.0,24.7,30.27,North,355,8.0,10.0,50,0.00,,,0.00,Wunderground v.1.15,2013-03-09 17:51:00,
2013-03-09 12:56:00,42.1,24.8,30.27,NNW,346,10.0,19.0,50,0.00,,,0.00,Wunderground v.1.15,2013-03-09 17:56:00,
2013-03-09 13:02:00,42.3,25.0,30.27,NNE,21,10.0,19.0,50,0.00,,,0.00,Wunderground v.1.15,2013-03-09 18:02:00,
2013-03-09 13:07:00,42.7,24.8,30.27,NE,36,9.0,19.0,49,0.00,,,0.00,Wunderground v.1.15,2013-03-09 18:07:00,
2013-03-09 13:12:00,43.1,24.7,30.27,NNE,12,8.0,19.0,48,0.00,,,0.00,Wunderground v.1.15,2013-03-09 18:12:00,
2013-03-09 13:17:00,43.5,24.6,30.27,NNW,341,7.0,19.0,47,0.00,,,0.00,Wunderground v.1.15,2013-03-09 18:17:00,
2013-03-09 13:22:00,43.7,24.8,30.27,North,5,7.0,19.0,47,0.00,,,0.00,Wunderground v.1.15,2013-03-09 18:22:00,
2013-03-09 13:28:00,43.7,24.8,30.26,North,355,8.0,19.0,47,0.00,,,0.00,Wunderground v.1.15,2013-03-09 18:28:00,
2013-03-09 13:33:00,44.1,25.1,30.26,NE,53,8.0,19.0,47,0.00,,,0.00,Wunderground v.1.15,2013-03-09 18:33:00,
2013-03-09 13:38:00,44.3,24.8,30.26,North,355,7.0,19.0,46,0.00,,,0.00,Wunderground v.1.15,2013-03-09 18:38:00,
2013-03-09 13:43:00,44.3,25.3,30.26,North,9,8.0,19.0,47,0.00,,,0.00,Wunderground v.1.15,2013-03-09 18:43:00,
2013-03-09 13:49:00,44.4,24.4,30.26,NNW,332,8.0,19.0,45,0.00,,,0.00,Wunderground v.1.15,2013-03-09 18:49:00,
2013-03-09 13:55:00,44.5,24.5,30.26,North,9,8.0,19.0,45,0.00,,,0.00,Wunderground v.1.15,2013-03-09 18:55:00,
2013-03-09 14:00:00,44.9,23.7,30.26,North,5,8.0,8.0,43,0.00,,,0.00,Wunderground v.1.15,2013-03-09 19:00:00,
2013-03-09 14:06:00,44.9,24.8,30.26,North,355,8.0,19.0,45,0.00,,,0.00,Wunderground v.1.15,2013-03-09 19:06:00,
2013-03-09 14:11:00,45.1,23.9,30.26,North,355,8.0,19.0,43,0.00,,,0.00,Wunderground v.1.15,2013-03-09 19:11:00,
2013-03-09 14:16:00,45.2,24.6,30.26,NNE,18,8.0,19.0,44,0.00,,,0.00,Wunderground v.1.15,2013-03-09 19:16:00,
2013-03-09 14:22:00,45.4,25.3,30.26,NNE,15,7.0,19.0,45,0.00,,,0.00,Wunderground v.1.15,2013-03-09 19:22:00,
2013-03-09 14:27:00,45.5,24.3,30.26,North,5,7.0,19.0,43,0.00,,,0.00,Wunderground v.1.15,2013-03-09 19:27:00,
2013-03-09 14:32:00,45.6,23.8,30.26,NE,35,7.0,19.0,42,0.00,,,0.00,Wunderground v.1.15,2013-03-09 19:32:00,
2013-03-09 14:38:00,45.8,24.0,30.26,NNE,26,7.0,19.0,42,0.00,,,0.00,Wunderground v.1.15,2013-03-09 19:38:00,
2013-03-09 14:43:00,45.8,24.0,30.26,North,355,7.0,19.0,42,0.00,,,0.00,Wunderground v.1.15,2013-03-09 19:43:00,
2013-03-09 14:48:00,45.7,23.9,30.26,North,351,7.0,19.0,42,0.00,,,0.00,Wunderground v.1.15,2013-03-09 19:48:00,
2013-03-09 14:54:00,45.8,24.0,30.26,North,9,7.0,19.0,42,0.00,,,0.00,Wunderground v.1.15,2013-03-09 19:54:00,
2013-03-09 15:00:00,46.1,24.8,30.26,North,355,7.0,19.0,43,0.00,,,0.00,Wunderground v.1.15,2013-03-09 20:00:00,
2013-03-09 15:05:00,46.3,23.9,30.26,NNE,12,7.0,19.0,41,0.00,,,0.00,Wunderground v.1.15,2013-03-09 20:05:00,
2013-03-09 15:10:00,46.5,24.0,30.26,NNE,19,6.0,6.0,41,0.00,,,0.00,Wunderground v.1.15,2013-03-09 20:10:00,
2013-03-09 15:15:00,46.5,24.0,30.26,NE,36,7.0,19.0,41,0.00,,,0.00,Wunderground v.1.15,2013-03-09 20:15:00,
2013-03-09 15:21:00,46.6,23.5,30.26,North,9,7.0,19.0,40,0.00,,,0.00,Wunderground v.1.15,2013-03-09 20:21:00,
2013-03-09 15:26:00,46.6,24.1,30.26,North,5,7.0,19.0,41,0.00,,,0.00,Wunderground v.1.15,2013-03-09 20:26:00,
2013-03-09 15:31:00,46.6,24.1,30.27,NNE,19,7.0,19.0,41,0.00,,,0.00,Wunderground v.1.15,2013-03-09 20:31:00,
2013-03-09 15:37:00,46.5,24.0,30.27,NNE,12,7.0,19.0,41,0.00,,,0.00,Wunderground v.1.15,2013-03-09 20:37:00,
2013-03-09 15:43:00,46.6,23.5,30.27,NNE,20,7.0,19.0,40,0.00,,,0.00,Wunderground v.1.15,2013-03-09 20:43:00,
2013-03-09 15:48:00,46.7,24.2,30.27,East,101,7.0,19.0,41,0.00,,,0.00,Wunderground v.1.15,2013-03-09 20:48:00,
2013-03-09 15:53:00,46.7,23.6,30.27,NNE,14,6.0,19.0,40,0.00,,,0.00,Wunderground v.1.15,2013-03-09 20:53:00,
2013-03-09 15:59:00,46.6,24.7,30.27,NE,40,5.0,19.0,42,0.00,,,0.00,Wunderground v.1.15,2013-03-09 20:59:00,
2013-03-09 16:04:00,46.7,24.2,30.27,NE,36,5.0,19.0,41,0.00,,,0.00,Wunderground v.1.15,2013-03-09 21:04:00,
2013-03-09 16:10:00,46.5,24.0,30.27,North,355,5.0,5.0,41,0.00,,,0.00,Wunderground v.1.15,2013-03-09 21:10:00,
2013-03-09 16:15:00,46.4,23.9,30.27,North,5,5.0,19.0,41,0.00,,,0.00,Wunderground v.1.15,2013-03-09 21:15:00,
2013-03-09 16:21:00,46.3,23.9,30.28,North,355,5.0,19.0,41,0.00,,,0.00,Wunderground v.1.15,2013-03-09 21:21:00,
2013-03-09 16:27:00,46.3,23.9,30.28,North,355,6.0,19.0,41,0.00,,,0.00,Wunderground v.1.15,2013-03-09 21:27:00,
2013-03-09 16:32:00,46.1,24.3,30.28,NNW,337,5.0,19.0,42,0.00,,,0.00,Wunderground v.1.15,2013-03-09 21:32:00,
2013-03-09 16:37:00,46.1,24.3,30.28,North,9,4.0,19.0,42,0.00,,,0.00,Wunderground v.1.15,2013-03-09 21:37:00,
2013-03-09 16:43:00,46.3,23.9,30.28,North,5,4.0,19.0,41,0.00,,,0.00,Wunderground v.1.15,2013-03-09 21:43:00,
2013-03-09 16:49:00,46.0,24.2,30.28,North,9,3.0,19.0,42,0.00,,,0.00,Wunderground v.1.15,2013-03-09 21:49:00,
2013-03-09 16:54:00,45.9,23.5,30.29,North,5,3.0,19.0,41,0.00,,,0.00,Wunderground v.1.15,2013-03-09 21:54:00,
2013-03-09 16:59:00,45.7,23.3,30.29,NNE,33,3.0,19.0,41,0.00,,,0.00,Wunderground v.1.15,2013-03-09 21:59:00,
2013-03-09 17:05:00,45.6,23.2,30.29,North,5,3.0,19.0,41,0.00,,,0.00,Wunderground v.1.15,2013-03-09 22:05:00,
2013-03-09 17:10:00,45.2,23.4,30.29,NNE,18,2.0,19.0,42,0.00,,,0.00,Wunderground v.1.15,2013-03-09 22:10:00,
2013-03-09 17:15:00,44.8,23.1,30.30,NNE,19,2.0,19.0,42,0.00,,,0.00,Wunderground v.1.15,2013-03-09 22:15:00,
2013-03-09 17:20:00,44.6,23.5,30.30,NNE,25,2.0,2.0,43,0.00,,,0.00,Wunderground v.1.15,2013-03-09 22:20:00,
2013-03-09 17:26:00,44.2,23.6,30.30,NNE,21,1.0,19.0,44,0.00,,,0.00,Wunderground v.1.15,2013-03-09 22:26:00,
2013-03-09 17:31:00,43.7,24.2,30.30,NNE,21,1.0,19.0,46,0.00,,,0.00,Wunderground v.1.15,2013-03-09 22:31:00,
2013-03-09 17:36:00,42.8,23.9,30.30,NNE,21,0.0,19.0,47,0.00,,,0.00,Wunderground v.1.15,2013-03-09 22:36:00,
2013-03-09 17:41:00,41.7,24.9,30.31,NNE,21,0.0,19.0,51,0.00,,,0.00,Wunderground v.1.15,2013-03-09 22:41:00,
2013-03-09 17:46:00,40.6,23.4,30.31,NNE,22,0.0,19.0,50,0.00,,,0.00,Wunderground v.1.15,2013-03-09 22:46:00,
2013-03-09 17:51:00,40.4,24.1,30.31,NNE,22,0.0,19.0,52,0.00,,,0.00,Wunderground v.1.15,2013-03-09 22:51:00,
2013-03-09 17:57:00,39.8,24.9,30.31,NNE,22,0.0,19.0,55,0.00,,,0.00,Wunderground v.1.15,2013-03-09 22:57:00,
2013-03-09 18:02:00,38.9,24.9,30.32,NNE,22,0.0,19.0,57,0.00,,,0.00,Wunderground v.1.15,2013-03-09 23:02:00,
2013-03-09 18:08:00,37.6,24.1,30.32,NNE,22,0.0,19.0,58,0.00,,,0.00,Wunderground v.1.15,2013-03-09 23:08:00,
2013-03-09 18:14:00,36.8,24.6,30.33,NNE,22,0.0,19.0,61,0.00,,,0.00,Wunderground v.1.15,2013-03-09 23:14:00,
2013-03-09 18:19:00,36.4,24.2,30.33,NNE,22,0.0,19.0,61,0.00,,,0.00,Wunderground v.1.15,2013-03-09 23:19:00,
2013-03-09 18:25:00,36.0,24.2,30.33,NNE,22,0.0,19.0,62,0.00,,,0.00,Wunderground v.1.15,2013-03-09 23:25:00,
2013-03-09 18:30:00,35.6,25.0,30.33,NNE,22,0.0,19.0,65,0.00,,,0.00,Wunderground v.1.15,2013-03-09 23:30:00,
2013-03-09 18:35:00,35.2,24.6,30.33,NNE,22,0.0,19.0,65,0.00,,,0.00,Wunderground v.1.15,2013-03-09 23:35:00,
2013-03-09 18:41:00,34.7,24.5,30.33,NNE,22,0.0,19.0,66,0.00,,,0.00,Wunderground v.1.15,2013-03-09 23:41:00,
2013-03-09 18:46:00,34.3,24.5,30.33,NNE,22,0.0,19.0,67,0.00,,,0.00,Wunderground v.1.15,2013-03-09 23:46:00,
2013-03-09 18:51:00,33.8,24.0,30.33,NNE,22,0.0,19.0,67,0.00,,,0.00,Wunderground v.1.15,2013-03-09 23:51:00,
2013-03-09 18:57:00,33.0,24.6,30.34,SSE,156,0.0,19.0,71,0.00,,,0.00,Wunderground v.1.15,2013-03-09 23:57:00,
2013-03-09 19:02:00,32.8,24.8,30.34,SSE,156,0.0,19.0,72,0.00,,,0.00,Wunderground v.1.15,2013-03-10 00:02:00,
2013-03-09 19:07:00,32.8,24.4,30.34,SSE,156,0.0,19.0,71,0.00,,,0.00,Wunderground v.1.15,2013-03-10 00:07:00,
2013-03-09 19:13:00,32.6,24.6,30.34,SSE,156,0.0,19.0,72,0.00,,,0.00,Wunderground v.1.15,2013-03-10 00:13:00,
2013-03-09 19:19:00,32.3,24.6,30.34,SSE,156,0.0,19.0,73,0.00,,,0.00,Wunderground v.1.15,2013-03-10 00:19:00,
2013-03-09 19:25:00,32.1,24.1,30.34,SSE,156,0.0,19.0,72,0.00,,,0.00,Wunderground v.1.15,2013-03-10 00:25:00,
2013-03-09 19:30:00,32.0,24.3,30.34,SSE,156,0.0,19.0,73,0.00,,,0.00,Wunderground v.1.15,2013-03-10 00:30:00,
2013-03-09 19:35:00,31.8,24.1,30.35,SSE,156,0.0,19.0,73,0.00,,,0.00,Wunderground v.1.15,2013-03-10 00:35:00,
2013-03-09 19:40:00,31.8,24.1,30.35,SSE,156,0.0,19.0,73,0.00,,,0.00,Wunderground v.1.15,2013-03-10 00:40:00,
2013-03-09 19:46:00,31.5,24.2,30.35,SSE,156,0.0,19.0,74,0.00,,,0.00,Wunderground v.1.15,2013-03-10 00:46:00,
2013-03-09 19:51:00,31.0,24.0,30.35,SSE,156,0.0,19.0,75,0.00,,,0.00,Wunderground v.1.15,2013-03-10 00:51:00,
2013-03-09 19:56:00,30.5,24.5,30.35,SSE,156,0.0,19.0,78,0.00,,,0.00,Wunderground v.1.15,2013-03-10 00:56:00,
2013-03-09 20:02:00,30.0,24.3,30.35,SSE,156,0.0,19.0,79,0.00,,,0.00,Wunderground v.1.15,2013-03-10 01:02:00,
2013-03-09 20:07:00,29.8,24.7,30.34,SSE,156,0.0,19.0,81,0.00,,,0.00,Wunderground v.1.15,2013-03-10 01:07:00,
2013-03-09 20:12:00,29.6,24.8,30.35,SSE,156,0.0,19.0,82,0.00,,,0.00,Wunderground v.1.15,2013-03-10 01:12:00,
2013-03-09 20:17:00,30.1,24.7,30.36,SSE,156,0.0,19.0,80,0.00,,,0.00,Wunderground v.1.15,2013-03-10 01:17:00,
2013-03-09 20:22:00,29.6,24.5,30.36,SSE,156,0.0,19.0,81,0.00,,,0.00,Wunderground v.1.15,2013-03-10 01:22:00,
2013-03-09 20:27:00,29.2,24.4,30.36,SSE,156,0.0,19.0,82,0.00,,,0.00,Wunderground v.1.15,2013-03-10 01:27:00,
2013-03-09 20:33:00,28.9,24.4,30.36,SSE,156,0.0,19.0,83,0.00,,,0.00,Wunderground v.1.15,2013-03-10 01:33:00,
2013-03-09 20:38:00,28.6,24.1,30.36,SSE,156,0.0,19.0,83,0.00,,,0.00,Wunderground v.1.15,2013-03-10 01:38:00,
2013-03-09 20:43:00,28.4,24.2,30.36,SSE,156,0.0,19.0,84,0.00,,,0.00,Wunderground v.1.15,2013-03-10 01:43:00,
2013-03-09 20:49:00,28.5,24.3,30.36,SSE,156,0.0,19.0,84,0.00,,,0.00,Wunderground v.1.15,2013-03-10 01:49:00,
2013-03-09 20:54:00,28.4,24.5,30.36,SSE,156,0.0,19.0,85,0.00,,,0.00,Wunderground v.1.15,2013-03-10 01:54:00,
2013-03-09 21:00:00,28.3,24.4,30.36,SSE,156,0.0,19.0,85,0.00,,,0.00,Wunderground v.1.15,2013-03-10 02:00:00,
2013-03-09 21:05:00,28.0,24.1,30.36,SSE,156,0.0,19.0,85,0.00,,,0.00,Wunderground v.1.15,2013-03-10 02:05:00,
2013-03-09 21:10:00,27.8,24.2,30.36,SSE,156,0.0,19.0,86,0.00,,,0.00,Wunderground v.1.15,2013-03-10 02:10:00,
2013-03-09 21:16:00,27.6,24.0,30.36,SSE,156,0.0,19.0,86,0.00,,,0.00,Wunderground v.1.15,2013-03-10 02:16:00,
2013-03-09 21:21:00,27.5,24.1,30.37,SSE,156,0.0,19.0,87,0.00,,,0.00,Wunderground v.1.15,2013-03-10 02:21:00,
2013-03-09 21:27:00,27.4,24.0,30.37,SSE,156,0.0,19.0,87,0.00,,,0.00,Wunderground v.1.15,2013-03-10 02:27:00,
2013-03-09 21:33:00,27.1,23.5,30.37,SSE,156,0.0,19.0,86,0.00,,,0.00,Wunderground v.1.15,2013-03-10 02:33:00,
2013-03-09 21:38:00,26.7,23.4,30.37,SSE,156,0.0,19.0,87,0.00,,,0.00,Wunderground v.1.15,2013-03-10 02:38:00,
2013-03-09 21:43:00,26.6,23.5,30.37,SSE,156,0.0,19.0,88,0.00,,,0.00,Wunderground v.1.15,2013-03-10 02:43:00,
2013-03-09 21:49:00,26.5,23.7,30.38,SSE,156,0.0,19.0,89,0.00,,,0.00,Wunderground v.1.15,2013-03-10 02:49:00,
2013-03-09 21:54:00,26.6,24.1,30.37,SSE,156,0.0,19.0,90,0.00,,,0.00,Wunderground v.1.15,2013-03-10 02:54:00,
2013-03-09 22:00:00,26.3,23.5,30.38,SSE,156,0.0,19.0,89,0.00,,,0.00,Wunderground v.1.15,2013-03-10 03:00:00,
2013-03-09 22:06:00,26.1,23.3,30.38,SSE,156,0.0,19.0,89,0.00,,,0.00,Wunderground v.1.15,2013-03-10 03:06:00,
2013-03-09 22:11:00,26.4,23.9,30.38,NE,54,0.0,19.0,90,0.00,,,0.00,Wunderground v.1.15,2013-03-10 03:11:00,
2013-03-09 22:16:00,26.5,23.4,30.38,NE,54,0.0,19.0,88,0.00,,,0.00,Wunderground v.1.15,2013-03-10 03:16:00,
2013-03-09 22:21:00,26.3,23.5,30.38,NE,54,0.0,19.0,89,0.00,,,0.00,Wunderground v.1.15,2013-03-10 03:21:00,
2013-03-09 22:27:00,26.3,23.5,30.38,NE,54,0.0,19.0,89,0.00,,,0.00,Wunderground v.1.15,2013-03-10 03:27:00,
2013-03-09 22:32:00,26.2,23.4,30.38,NE,54,0.0,19.0,89,0.00,,,0.00,Wunderground v.1.15,2013-03-10 03:32:00,